GFSCGP_925_temp_258.txt.gz
Temp
25 24 25 26 27 28 28 27 27 28 29 25 26 27 25 26 26 26 25 25 25 25 25 25 25 24 24 24 24 24 23 23 23 22 22 22 22 23 23 23 23 23 24 24
24 24 26 27 28 28 29 28 27 27 29 26 27 26 26 26 26 26 26 25 26 24 23 24 24 24 23 24 24 24 24 24 23 23 23 23 24 24 24 23 23 24 24 24
24 27 27 27 26 27 26 27 27 27 26 27 28 26 26 26 27 27 27 27 26 25 24 23 23 23 23 23 23 24 25 25 24 24 24 24 23 23 23 23 24 24 24 24
26 26 27 26 27 26 26 28 28 27 26 25 27 24 25 25 26 26 26 26 26 26 25 24 24 23 23 23 24 24 25 25 24 24 24 24 24 23 24 24 24 24 24 24
26 26 26 26 26 27 25 27 27 27 26 25 26 25 25 24 25 26 27 27 27 26 26 25 24 24 24 23 23 24 24 24 24 24 24 24 24 24 25 24 24 24 24 25
24 24 24 26 25 26 25 26 23 22 21 23 25 25 24 23 26 26 27 27 28 27 27 26 25 25 24 24 23 23 24 24 24 24 24 24 24 24 24 24 24 25 25 25
21 23 23 24 23 23 21 20 20 23 23 23 23 24 24 27 27 27 27 27 28 28 27 26 25 25 24 24 23 23 23 23 24 24 24 25 25 25 25 25 25 25 25 25
19 21 22 23 24 24 22 21 19 23 21 22 22 24 26 27 28 28 28 28 28 28 28 27 26 25 25 24 23 23 23 23 24 24 25 25 25 25 25 25 25 25 26 26
18 20 22 24 24 24 23 21 22 21 20 19 21 23 25 27 27 29 28 27 27 28 28 27 27 26 25 25 24 23 23 23 23 25 25 25 25 25 25 26 25 25 26 26
21 19 20 22 22 23 23 22 20 17 22 22 20 23 23 26 26 27 27 27 27 28 29 28 28 26 26 25 25 24 24 24 24 25 24 25 25 25 25 25 25 25 26 26
19 17 19 21 21 20 18 20 18 17 16 19 18 20 22 26 23 25 26 26 26 28 29 28 28 27 26 26 25 24 24 23 23 24 24 24 25 25 25 25 26 25 26 26
18 14 17 19 19 18 19 20 16 16 18 16 17 18 24 23 24 24 24 25 23 27 29 29 28 27 26 25 25 25 24 23 23 24 24 24 24 25 25 25 26 26 26 26
19 15 14 16 17 18 19 21 20 16 14 16 18 19 25 23 22 20 21 23 22 23 26 25 26 26 25 25 25 25 24 24 24 23 24 23 23 24 24 25 25 25 26 26
16 13 15 15 17 17 18 19 19 18 16 17 17 19 20 22 19 20 21 21 21 20 23 23 25 26 26 26 25 25 24 24 24 23 23 23 23 24 24 24 25 25 25 26
15 15 14 14 16 17 16 17 18 18 17 17 20 20 20 19 19 19 18 20 21 20 20 20 20 20 23 24 25 25 24 24 24 23 23 23 23 23 24 24 24 25 25 25
12 14 14 16 16 16 17 18 18 18 19 19 19 18 19 19 18 19 18 19 20 20 19 19 19 19 19 20 23 24 24 24 24 23 23 23 23 23 23 24 24 24 25 25
14 12 12 14 15 16 15 17 18 18 19 19 18 19 19 19 18 18 18 18 18 18 18 18 18 19 18 19 22 23 23 24 24 23 23 23 23 23 23 24 23 24 24 24
11 11 11 12 14 15 17 17 19 19 20 18 18 18 18 18 18 17 17 17 18 17 18 18 18 18 18 19 21 22 23 23 23 23 23 23 23 23 23 23 23 23 23 23
10 10 12 13 11 14 17 19 16 16 17 18 18 18 18 18 18 17 18 17 17 17 17 17 17 17 18 19 19 20 21 22 23 23 23 23 22 22 22 22 22 23 23 23
10 9 13 10 13 14 16 16 15 15 15 18 17 17 17 17 19 17 17 17 17 17 17 17 17 17 17 18 19 20 19 19 19 19 20 21 21 21 21 21 20 21 22 20
11 10 12 11 12 13 14 15 15 15 16 14 15 16 17 16 16 14 14 17 17 16 16 16 16 16 16 17 18 17 17 17 17 17 17 18 19 19 19 19 19 19 19 20
12 11 11 10 11 13 14 15 16 13 13 14 14 14 15 15 15 14 15 16 16 16 16 16 15 15 15 16 17 18 17 18 19 18 17 18 18 18 18 19 19 19 19 18
12 11 12 12 11 12 12 13 13 12 12 13 14 14 13 15 15 15 14 15 15 15 15 16 15 15 15 16 16 16 17 17 19 19 20 19 19 21 21 18 18 19 18 18
12 10 11 13 13 12 12 11 11 11 11 12 12 13 13 15 15 15 14 15 15 15 14 14 14 14 14 15 16 16 16 17 17 18 19 18 19 20 19 19 18 18 18 18
11 12 12 12 12 11 12 11 11 11 11 12 13 14 14 15 14 14 13 13 13 13 13 13 12 12 12 14 15 17 17 17 17 16 16 17 18 18 18 17 17 18 17 17
10 11 11 11 11 11 11 11 11 11 12 13 13 14 14 14 13 13 12 12 12 11 12 12 12 12 11 13 15 16 17 18 17 16 16 16 17 17 17 18 18 18 18 18

GFSCGP_925_temp_261.txt.gz
Temp
28 30 30 29 30 30 30 30 30 31 31 29 30 30 30 28 28 28 28 28 28 28 28 27 26 25 25 24 22 22 21 21 21 21 21 21 21 21 22 22 22 23 23 23
30 29 29 29 30 30 31 29 30 30 31 30 31 30 31 29 29 29 29 29 29 29 29 27 26 25 25 24 23 22 22 22 22 21 21 22 22 22 22 22 22 23 23 23
29 29 28 29 30 30 30 30 29 29 31 31 31 31 29 29 29 29 30 30 29 29 29 28 27 26 26 25 23 23 23 22 23 22 21 21 21 22 22 22 23 23 23 24
29 28 28 29 29 29 29 30 30 30 30 31 31 31 31 31 30 29 30 30 30 29 29 29 27 26 26 25 25 24 23 23 22 22 22 22 24 24 24 23 23 23 24 24
26 27 28 28 27 28 28 28 29 29 30 30 31 31 33 29 30 30 30 30 30 30 30 30 28 27 26 26 25 24 23 23 23 22 22 23 24 24 24 24 23 23 23 24
25 26 27 27 27 27 27 28 28 27 30 29 31 31 33 33 33 33 32 31 31 31 31 30 29 28 27 26 25 24 23 23 23 23 22 22 23 24 24 24 24 24 24 24
26 26 26 26 28 28 28 29 29 29 29 30 29 30 32 33 32 32 33 33 32 31 31 30 30 28 27 26 25 25 23 23 22 22 22 22 23 23 23 23 24 24 24 24
25 26 26 26 26 26 26 26 27 26 28 30 27 29 32 32 32 31 31 31 32 33 32 31 31 29 27 26 25 25 23 23 23 22 23 22 23 24 24 24 24 24 25 25
24 25 24 25 25 25 26 26 25 26 24 26 29 30 31 32 30 29 29 29 29 29 31 32 31 29 28 27 26 25 24 23 23 23 23 22 22 23 24 24 25 24 24 25
23 24 23 24 25 25 26 25 26 25 25 26 28 26 30 28 27 27 27 27 27 27 29 30 32 30 28 27 27 25 25 24 24 24 23 23 23 23 23 24 25 24 24 26
23 23 24 23 24 24 24 25 24 24 24 26 26 28 28 26 26 26 27 27 27 27 27 28 32 30 29 28 27 26 26 25 24 23 23 23 23 23 23 24 24 25 25 25
21 23 23 23 23 21 23 23 24 24 24 24 24 26 30 27 27 27 27 26 26 26 27 26 31 31 29 28 27 27 26 25 24 24 23 23 23 23 23 23 24 24 25 26
22 21 22 23 23 23 23 23 23 22 22 23 24 26 28 27 27 26 26 26 24 24 25 26 29 30 29 28 27 27 26 25 25 24 23 24 24 24 24 24 24 24 24 25
21 21 22 23 24 22 22 22 22 22 23 24 24 25 26 26 25 25 26 24 23 23 24 24 24 29 27 27 26 26 25 26 25 24 24 24 24 24 24 24 24 24 24 24
21 21 20 22 21 22 21 21 22 22 23 22 24 24 25 25 24 24 23 23 22 21 22 21 22 25 26 25 25 25 25 25 25 24 24 24 24 24 24 24 24 24 24 24
18 20 18 19 21 21 20 21 21 22 22 22 22 22 25 25 23 23 23 22 21 21 20 20 20 22 25 25 24 23 24 24 25 24 23 24 23 23 23 23 23 23 23 24
19 19 18 20 19 19 19 20 22 23 23 23 22 24 25 23 22 22 22 21 21 21 20 19 18 19 21 23 23 24 24 24 24 23 23 23 23 22 22 23 23 23 23 23
17 17 18 19 18 19 22 21 22 22 23 23 22 23 23 23 22 22 22 21 20 21 20 19 18 18 18 19 21 23 23 23 22 23 23 22 22 23 22 22 22 23 23 23
17 17 19 18 19 20 20 22 20 20 21 21 19 20 21 22 21 23 21 19 18 18 19 18 18 17 18 18 20 21 22 22 22 23 23 23 23 22 22 22 22 22 22 22
16 15 18 18 17 18 20 19 18 18 18 19 18 18 18 18 19 21 19 18 16 15 17 17 18 18 17 17 19 20 22 21 21 21 21 22 22 21 22 22 21 21 21 21
18 17 17 18 17 19 20 18 17 17 18 17 18 17 16 15 17 18 18 18 17 14 15 16 17 17 17 17 18 18 18 17 17 18 19 20 20 20 20 20 19 19 19 19
17 17 18 16 16 17 18 18 17 17 16 17 17 17 16 16 15 16 17 17 16 15 15 16 15 15 15 17 17 17 16 16 17 18 18 18 17 17 18 19 19 19 19 19
16 17 18 17 18 19 17 16 16 15 15 15 15 16 16 16 15 17 17 15 16 14 14 15 15 13 13 14 16 17 16 17 16 17 17 17 17 17 17 18 18 18 17 18
16 15 15 16 18 18 17 16 16 15 15 15 15 16 16 16 16 16 15 15 14 13 12 13 13 12 12 13 14 15 16 16 16 17 17 17 17 17 17 17 18 18 18 17
17 15 16 16 17 16 16 16 15 14 14 15 16 15 16 16 15 14 13 13 12 11 10 11 11 11 11 11 12 14 15 15 16 16 17 17 17 16 16 17 18 18 18 18
15 17 16 17 17 15 15 15 13 12 13 14 14 14 14 14 13 12 12 11 11 10 9 10 10 10 10 12 13 14 14 15 15 15 14 15 15 15 15 15 16 16 17 17

GFSCGP_925_temp_264.txt.gz
Temp
34 34 34 34 33 33 34 34 34 34 32 31 35 34 35 33 33 33 33 32 32 32 32 30 29 28 28 27 26 25 24 24 23 23 24 24 25 25 25 25 24 24 24 24
33 34 33 33 33 34 34 34 34 34 34 34 35 35 36 35 33 33 33 33 33 33 33 31 30 29 28 27 26 25 24 24 23 24 24 25 25 25 25 25 24 24 24 24
34 34 32 32 33 33 34 33 34 33 34 36 35 36 35 34 34 34 34 34 34 33 33 32 31 29 29 28 27 25 24 24 23 24 24 24 24 25 25 25 25 24 24 24
33 32 31 32 32 32 33 33 33 33 33 34 35 35 36 36 35 34 34 34 34 34 33 33 31 30 29 29 28 26 25 24 24 24 25 24 25 26 26 26 26 26 24 24
30 31 31 31 31 32 33 32 32 33 33 34 35 34 37 36 36 36 36 35 35 35 34 34 33 31 30 30 29 27 26 25 25 24 24 24 25 27 27 27 26 25 25 25
31 30 31 31 31 31 31 32 33 33 34 33 35 35 36 37 36 37 36 36 36 36 35 34 33 32 31 30 30 29 26 25 24 24 23 24 25 26 27 26 26 26 26 25
30 30 30 30 31 31 32 33 32 32 33 33 36 35 35 37 36 34 34 35 35 36 36 35 34 33 31 31 30 29 27 25 25 24 24 24 24 25 26 26 26 27 27 27
30 29 30 29 30 29 30 31 32 31 33 35 32 33 35 36 34 33 34 34 33 33 34 36 36 34 32 31 30 30 28 26 25 25 25 24 24 25 25 26 27 27 28 28
29 29 29 29 29 30 30 30 31 31 32 31 33 34 34 35 33 33 33 33 32 32 33 33 33 35 34 32 31 30 29 27 26 26 25 24 24 24 26 26 26 27 27 28
28 28 29 28 29 29 29 30 30 31 29 30 33 32 33 33 31 32 32 32 31 31 32 33 33 32 34 33 31 30 29 28 27 27 26 25 25 24 25 26 26 26 27 26
28 28 28 27 28 29 29 29 29 31 31 31 31 33 33 31 31 31 31 32 32 30 31 31 32 31 33 34 32 31 30 29 27 27 27 26 26 25 25 25 25 25 26 26
27 28 27 28 28 27 27 29 29 30 29 30 30 30 34 31 31 31 31 31 31 30 30 30 30 29 32 34 33 32 31 29 28 27 27 26 26 26 25 25 25 25 26 26
27 27 27 28 28 26 27 28 28 28 29 28 29 31 32 32 31 30 30 30 30 29 29 28 29 28 28 32 32 31 31 30 29 27 26 27 27 26 26 26 26 26 26 26
23 26 26 27 28 27 26 26 27 27 27 28 29 30 31 31 30 29 29 29 28 28 27 28 27 25 25 28 30 30 30 30 29 28 27 27 27 27 27 26 26 25 25 26
25 24 25 26 26 26 26 26 27 26 26 26 28 28 29 29 28 28 27 27 27 27 27 26 26 25 23 25 28 29 29 29 29 28 27 27 27 27 27 27 26 26 25 26
25 23 23 23 25 25 25 26 26 26 26 26 27 27 29 29 29 28 26 26 26 27 26 26 25 24 22 22 25 26 28 28 27 28 27 27 26 26 26 26 26 25 25 25
24 23 23 23 24 24 23 25 26 26 27 27 26 27 28 26 26 26 26 25 26 26 25 24 24 24 21 20 22 25 26 26 26 26 27 26 26 25 25 25 25 25 25 25
22 22 23 23 23 22 25 26 26 25 26 26 26 25 23 23 24 25 26 25 25 23 22 22 22 22 21 18 19 22 24 24 21 23 26 25 25 24 24 24 25 25 25 25
23 22 23 22 24 24 25 25 24 23 24 25 23 22 22 22 22 24 26 23 22 22 22 21 20 20 20 18 18 20 22 24 25 25 25 24 24 23 23 23 23 24 25 25
22 21 21 22 21 21 24 23 23 22 21 22 20 21 21 21 21 23 23 21 22 21 20 20 19 18 19 19 18 18 22 23 24 25 24 24 22 21 22 22 23 23 23 24
22 21 21 22 22 23 24 22 22 19 21 20 20 20 20 20 21 21 21 20 21 21 20 19 19 18 17 18 18 18 21 23 22 21 23 22 22 22 22 22 22 21 22 22
21 21 22 22 21 21 22 22 19 20 20 20 20 20 20 20 20 20 20 20 20 19 19 17 18 18 17 17 17 17 19 18 19 20 20 19 19 19 20 20 20 20 20 20
20 21 21 21 22 22 22 21 21 20 19 19 19 19 19 19 20 20 20 18 19 18 17 15 14 16 15 15 17 17 16 16 17 17 17 17 17 18 18 19 19 18 18 18
21 21 20 20 22 21 21 21 20 18 17 16 17 18 17 18 18 17 17 18 18 17 16 14 14 14 13 12 14 15 16 17 17 17 17 17 17 16 17 17 17 18 18 18
22 20 20 20 22 21 21 20 18 13 14 15 16 15 16 16 18 17 15 14 14 12 11 12 12 12 10 11 12 13 15 17 18 18 18 17 19 19 18 16 17 17 17 18
22 21 21 21 21 20 20 19 13 13 12 13 13 15 15 15 13 12 11 10 9 9 9 8 10 9 9 9 9 11 13 15 16 15 15 15 16 16 16 15 15 16 16 17

GFSCGP_925_temp_270.txt.gz
Temp
37 36 37 39 38 37 37 38 37 36 36 35 37 37 36 36 36 36 35 35 34 34 34 33 32 31 31 30 28 27 27 26 26 25 25 26 26 26 27 28 26 26 26 25
36 36 38 38 37 37 37 37 38 38 36 36 36 36 38 36 36 37 36 35 35 35 34 33 32 32 31 30 28 27 27 26 25 25 25 26 27 27 27 28 27 26 26 26
36 38 37 37 37 36 37 37 37 37 37 38 38 36 37 37 37 38 37 37 36 35 35 34 32 32 31 30 28 27 26 26 25 25 26 26 27 27 27 28 27 27 26 26
37 37 36 36 36 37 36 37 37 36 36 35 39 36 38 37 37 37 38 37 36 36 36 34 33 32 32 30 29 27 26 25 25 26 26 26 26 26 27 28 27 26 26 25
36 36 35 35 36 36 36 36 36 36 36 36 37 37 39 38 37 37 38 34 36 37 36 36 35 33 32 32 29 28 26 26 25 25 25 26 26 26 27 28 28 27 26 25
36 36 35 35 35 35 36 35 35 36 36 34 37 37 38 38 37 36 32 30 31 27 31 37 35 34 33 32 31 29 26 26 25 25 26 25 26 27 28 27 28 27 26 25
35 35 35 34 34 36 35 35 34 35 35 35 39 38 38 38 38 37 35 34 32 25 34 33 31 35 33 33 32 31 27 26 25 25 25 25 26 27 27 28 28 27 27 26
34 33 34 35 34 33 34 35 33 32 35 36 39 37 35 37 37 37 37 36 36 36 36 36 35 32 33 34 33 32 28 26 26 25 25 25 25 26 26 26 28 28 28 28
34 34 34 34 34 34 34 33 35 34 36 35 38 36 36 37 36 36 36 35 35 35 35 34 35 34 33 32 31 33 32 27 26 26 26 25 25 25 26 26 27 28 28 29
33 32 34 33 34 34 33 34 33 35 32 33 36 37 36 35 35 35 35 34 34 34 34 34 34 33 32 32 31 29 33 29 27 26 26 25 25 25 25 26 27 27 28 28
33 32 33 33 33 33 33 33 33 34 34 33 33 35 35 35 35 34 34 33 33 33 33 33 32 32 31 30 30 28 29 30 29 27 27 26 26 25 25 25 26 27 27 28
32 32 32 33 35 34 33 32 33 32 32 34 34 34 36 35 35 34 33 33 32 32 32 32 31 30 29 29 28 26 26 28 31 28 27 27 26 26 25 25 25 27 27 27
30 31 30 32 34 34 32 32 33 33 33 31 31 33 36 35 35 34 33 33 32 31 31 30 30 29 28 27 27 26 24 25 26 29 28 28 27 26 26 26 25 26 26 26
28 30 29 29 30 31 31 32 32 32 31 31 32 33 34 34 32 32 32 32 31 30 30 29 28 27 26 25 25 25 24 23 24 24 29 28 28 27 27 26 26 26 26 26
29 27 29 29 30 30 30 30 31 30 31 30 31 31 32 32 31 30 29 29 29 29 29 29 28 26 25 24 24 24 24 23 22 23 23 27 28 28 28 28 27 27 26 26
29 27 28 27 29 29 29 30 30 30 30 30 30 30 32 32 30 28 27 27 26 26 27 27 27 25 25 24 23 23 23 24 22 21 22 24 26 28 28 28 28 27 27 26
28 28 27 26 28 29 28 29 30 30 30 30 28 27 28 28 27 26 26 26 25 26 25 24 25 25 24 23 23 23 22 22 22 21 22 23 24 27 28 28 28 28 27 26
27 26 26 25 27 25 29 30 29 28 28 28 27 27 26 26 26 26 26 26 26 25 24 24 24 24 24 23 22 22 22 21 21 22 21 22 24 25 26 26 26 27 26 26
28 27 26 25 26 28 29 27 26 25 25 27 25 24 25 25 25 25 26 25 23 24 24 24 23 23 23 22 22 20 20 21 21 21 21 22 23 23 24 25 25 25 25 25
28 27 25 25 24 24 25 26 26 26 24 24 24 23 23 23 21 23 22 23 23 23 23 23 23 23 22 22 20 19 19 21 21 21 22 22 22 22 22 24 24 24 23 23
26 25 25 25 25 26 25 26 26 22 22 22 23 22 22 21 21 20 21 21 21 22 22 22 23 22 21 21 19 19 19 19 19 19 20 21 21 22 22 22 23 23 22 23
25 25 25 26 25 23 25 25 23 22 22 22 21 20 19 19 19 19 20 19 20 21 21 20 19 19 19 18 17 17 17 17 16 16 18 19 20 21 21 21 21 21 21 21
24 25 24 24 24 25 26 25 24 22 21 20 19 18 17 15 15 15 17 17 16 16 17 17 17 16 14 12 12 13 14 14 13 14 17 19 19 20 21 21 21 22 22 21
26 26 24 24 25 22 24 25 24 21 19 19 18 16 13 11 10 10 10 10 10 10 11 12 12 12 10 9 9 9 11 12 12 13 16 18 18 18 19 20 20 20 20 20
26 25 24 24 22 21 19 20 21 20 18 17 15 13 10 9 9 8 8 8 8 8 8 9 10 9 9 8 8 8 9 11 12 15 16 17 17 17 17 17 17 17 17 18
25 24 23 23 24 23 23 23 20 19 16 15 13 12 10 9 8 8 7 7 7 7 7 8 8 9 7 7 8 8 10 11 14 14 14 16 17 16 15 15 15 16 17 17

GFSCGP_925_temp_273.txt.gz
Temp
32 31 30 34 35 36 36 35 33 33 34 33 32 32 32 33 33 32 31 31 30 30 30 31 31 31 30 28 28 27 27 26 26 25 25 25 26 26 27 26 26 26 26 27
31 30 34 36 36 36 35 34 34 34 34 32 34 34 33 33 34 32 32 31 31 31 30 30 31 31 29 28 28 28 27 26 25 25 25 25 26 26 27 27 27 26 26 26
31 34 37 36 35 34 33 34 33 33 34 34 34 32 33 34 34 34 33 32 32 32 30 29 29 30 29 27 28 27 27 26 25 25 25 25 26 26 26 26 26 26 26 26
32 35 35 35 35 35 32 34 34 34 31 30 33 28 31 32 33 34 32 31 32 32 31 30 29 29 29 27 27 27 27 26 25 25 25 25 25 25 26 27 26 26 26 26
33 32 34 34 34 34 33 33 32 33 30 30 30 29 31 33 29 31 29 27 25 24 24 23 29 29 29 28 26 27 26 26 25 25 25 25 25 26 27 27 26 26 26 26
34 34 34 33 34 34 34 33 31 31 28 26 29 29 28 32 30 27 28 25 26 24 23 22 23 27 29 28 27 26 26 26 25 25 25 25 25 26 26 26 27 26 26 26
33 33 33 34 33 33 33 30 25 26 27 26 30 30 31 31 30 30 29 28 27 25 22 19 20 24 28 25 27 26 26 25 25 25 25 25 25 26 26 26 27 26 25 25
30 29 32 33 32 32 31 30 25 28 27 28 30 29 30 33 33 31 30 29 29 26 23 24 23 24 24 23 23 27 25 25 25 25 26 26 26 25 26 26 26 26 26 26
27 30 33 33 33 31 30 27 30 28 29 28 30 31 29 30 31 32 31 30 29 29 29 29 27 25 24 25 24 25 23 25 24 25 25 25 26 26 26 25 26 26 26 27
30 28 31 32 33 32 32 31 26 24 27 29 29 30 28 29 29 30 29 27 27 28 27 27 28 28 28 28 26 25 25 24 25 25 24 24 26 26 26 26 26 26 27 27
30 28 29 32 30 30 29 28 28 25 26 26 25 27 28 27 28 28 27 27 27 27 26 26 27 28 26 26 25 25 24 23 23 23 25 25 24 25 25 25 26 26 27 27
27 27 25 29 32 32 31 30 28 23 25 25 25 26 28 27 28 28 27 27 27 26 26 25 26 25 24 24 24 23 24 24 23 23 23 25 25 24 24 25 25 26 26 27
26 24 23 27 29 28 30 31 31 27 25 25 24 26 29 28 26 25 25 25 25 25 25 24 23 23 24 24 23 24 22 22 23 22 23 24 25 24 24 24 24 25 26 26
26 25 25 23 27 27 27 28 28 27 24 25 26 29 27 27 25 25 24 23 23 23 23 23 22 22 24 24 23 23 23 22 22 22 21 22 24 25 25 25 24 24 25 25
26 24 26 25 27 27 27 28 28 27 27 26 26 24 22 23 23 23 23 23 23 23 23 21 21 21 23 23 23 23 23 22 21 21 21 21 21 23 25 26 26 25 24 25
26 23 26 25 27 27 27 28 28 28 28 27 26 23 23 23 23 23 22 22 22 22 22 21 21 22 22 23 23 23 22 22 21 20 20 21 21 21 23 24 26 26 25 25
24 22 22 23 24 25 24 27 27 27 25 24 21 22 22 22 22 21 21 21 21 21 21 21 20 21 22 22 23 22 22 21 21 20 20 20 21 21 21 23 25 26 26 25
23 23 22 21 22 22 24 25 26 26 25 23 22 22 21 21 20 21 20 19 19 20 20 20 21 22 23 23 22 21 20 20 20 20 19 20 20 21 21 22 24 24 25 23
25 23 21 21 21 24 25 24 24 23 21 22 21 21 21 20 20 19 19 18 18 18 19 20 21 21 21 23 22 20 19 19 19 19 19 19 19 19 21 21 22 24 24 25
24 22 20 21 21 22 22 24 25 24 19 21 20 19 18 18 16 16 17 17 17 18 19 19 19 20 21 20 20 18 18 18 18 18 17 17 16 17 19 20 21 22 24 24
22 22 21 20 21 22 23 24 25 21 18 18 18 17 16 15 14 14 14 14 15 14 14 15 17 17 17 14 15 14 14 15 15 15 15 15 15 15 18 19 20 21 23 24
23 21 21 21 21 21 23 24 22 18 17 17 16 15 13 13 13 12 12 10 11 11 11 11 12 12 12 11 11 10 11 11 11 12 13 13 13 14 17 18 20 20 21 22
22 21 20 21 20 20 19 19 18 17 16 15 14 12 11 11 10 10 10 9 9 9 9 9 10 11 10 9 9 8 9 9 9 11 12 12 12 14 16 19 19 20 20 21
25 23 20 21 20 20 20 18 17 16 15 14 12 11 10 9 9 9 8 8 8 8 8 8 8 9 9 8 8 8 8 8 9 10 11 11 13 15 18 19 20 20 20 20
22 22 22 20 16 16 17 17 18 15 14 13 12 11 10 9 9 8 8 8 8 8 7 7 7 8 8 8 8 8 8 8 9 10 11 12 14 17 17 18 18 19 19 19
22 21 19 19 17 16 17 17 16 14 13 12 11 10 10 9 8 8 8 8 8 8 8 8 7 8 7 8 8 9 8 9 10 12 13 14 16 15 15 14 16 17 17 18

GFSCGP_925_temp_276.txt.gz
Temp
30 29 28 29 29 33 33 31 31 31 31 29 29 30 30 30 29 29 29 29 28 28 28 29 28 27 26 25 26 26 26 26 26 26 26 26 26 25 25 26 26 26 26 26
28 28 30 31 34 33 34 32 31 32 31 29 29 29 31 30 30 30 30 29 29 28 28 28 28 26 26 25 26 26 26 26 26 26 26 26 25 26 26 26 26 26 26 27
28 30 33 35 33 32 29 31 31 31 32 31 32 30 30 31 31 31 31 29 29 29 28 28 27 26 26 26 26 26 26 26 26 25 26 25 25 25 26 26 26 26 26 26
29 31 34 33 33 30 29 31 32 31 29 29 30 27 27 30 31 31 28 25 26 28 29 28 28 26 26 26 27 27 27 26 26 26 26 25 25 25 25 26 26 26 26 26
31 31 31 31 32 31 31 33 32 32 29 28 29 27 28 30 30 27 25 24 24 23 25 25 27 27 26 26 27 27 27 26 26 25 25 25 25 25 25 25 25 26 26 26
30 33 32 32 33 33 32 30 26 24 23 24 26 27 26 29 26 25 25 25 23 24 24 23 24 26 27 26 26 26 26 26 26 25 25 25 25 25 25 25 25 26 25 25
29 31 32 32 31 28 27 23 22 26 24 25 26 27 26 28 27 27 25 24 23 22 23 22 23 24 25 25 25 25 24 24 25 25 25 25 25 25 25 25 25 26 25 25
26 27 31 32 31 30 30 24 22 28 25 26 26 26 26 26 25 25 26 25 24 23 24 24 25 24 24 24 25 25 25 25 24 24 25 25 25 25 25 25 26 26 26 26
26 29 30 31 31 30 29 26 26 25 24 24 24 25 26 26 27 27 27 26 24 24 23 23 24 23 23 24 24 25 24 23 24 24 24 24 24 24 24 25 26 26 26 25
28 27 28 32 30 30 29 28 25 20 26 25 25 25 25 25 25 27 26 25 24 26 27 26 24 24 24 25 24 24 23 23 23 23 23 23 23 24 24 24 24 26 26 26
25 24 27 28 28 28 26 26 23 21 21 23 22 23 24 23 23 23 25 26 25 25 25 24 24 24 25 24 23 23 23 23 23 22 22 22 22 23 24 24 24 25 25 26
25 20 23 27 27 28 28 28 22 21 25 20 22 23 24 23 22 22 22 23 22 22 21 21 22 22 23 23 23 23 23 23 23 22 22 22 22 23 24 23 24 24 24 25
25 20 20 22 23 24 25 25 25 20 19 23 21 21 24 23 22 21 21 20 20 21 20 20 20 21 22 22 22 22 22 22 22 22 22 22 21 21 23 23 23 24 24 24
22 19 20 20 24 24 25 25 25 21 21 21 20 21 22 21 21 20 20 20 21 20 19 19 19 20 22 22 22 22 22 22 21 22 21 22 21 21 21 21 23 24 24 24
21 21 24 23 25 25 26 25 26 26 24 22 20 20 21 21 20 21 21 21 20 20 19 19 19 20 21 22 22 22 22 21 21 21 21 21 21 21 20 20 21 22 24 24
19 21 23 21 23 23 25 25 25 24 23 21 20 19 21 20 19 19 18 18 18 18 19 19 19 19 20 21 22 22 22 22 21 21 21 21 21 20 20 20 20 21 22 23
21 19 18 21 21 22 22 22 22 21 20 20 18 20 20 18 19 18 16 17 17 17 17 18 18 19 19 20 21 21 22 22 21 20 20 21 21 19 19 19 19 20 20 21
20 19 17 19 20 21 22 22 22 20 20 19 19 19 18 18 19 15 15 14 15 15 16 16 17 17 17 18 20 21 20 20 19 19 19 19 19 18 17 18 18 18 20 20
20 18 18 19 18 21 22 22 22 22 18 19 18 17 17 17 18 17 14 13 13 13 13 13 13 13 15 16 15 16 17 17 17 17 16 16 16 16 16 15 16 17 18 19
18 17 18 17 20 20 21 23 24 22 17 17 16 15 15 15 14 13 11 12 11 10 10 10 10 11 12 11 11 12 12 12 13 13 13 13 14 14 14 14 14 16 17 18
19 18 19 17 18 19 22 23 23 20 17 16 15 14 13 13 12 10 10 10 9 9 9 9 9 10 11 10 9 9 9 10 11 11 11 12 13 13 13 13 13 15 17 18
20 18 17 17 19 19 20 21 22 16 15 14 13 12 11 10 10 9 9 9 8 9 8 8 8 8 9 9 8 8 8 9 8 8 8 10 11 12 12 12 12 14 16 18
21 18 18 17 17 17 16 16 16 14 13 13 11 10 10 9 8 9 8 8 8 8 8 8 8 8 8 8 8 7 8 8 8 8 9 9 10 10 11 11 12 15 17 18
19 19 18 18 17 18 16 16 15 14 12 11 10 9 9 8 8 8 7 8 8 8 8 8 8 8 8 8 8 8 8 8 8 8 9 9 10 11 11 12 14 17 18 19
18 19 17 15 16 16 16 15 14 13 12 11 10 10 8 8 8 7 7 8 9 8 9 9 8 8 8 8 7 8 8 8 8 9 9 11 11 11 11 13 15 16 17 18
18 18 17 16 16 16 16 14 13 12 12 10 9 9 9 8 7 8 7 8 8 8 9 8 8 8 8 7 7 8 8 8 9 9 10 11 12 13 13 14 14 13 15 18

GFSCGP_925_temp_282.txt.gz
Temp
27 27 27 28 27 28 29 28 29 28 28 28 27 26 26 26 26 26 25 24 24 24 25 26 26 25 25 24 24 25 24 24 24 24 24 24 24 24 25 25 25 25 25 25
27 29 30 29 28 28 28 28 28 30 28 28 26 27 26 27 27 27 26 26 25 24 23 24 25 25 25 25 24 25 25 25 24 24 24 24 24 25 25 25 25 25 25 25
28 30 29 31 30 29 29 27 30 29 27 28 27 27 27 27 26 25 27 26 26 25 24 23 24 24 24 24 25 25 25 25 25 24 24 23 24 24 25 25 25 25 25 25
28 29 30 30 30 29 31 31 29 27 26 26 27 25 26 26 26 26 24 24 24 25 24 23 24 23 23 24 25 25 25 25 25 24 24 24 24 24 25 25 25 25 25 25
29 29 30 30 30 28 30 28 28 28 25 26 27 25 25 24 25 26 26 25 23 24 24 23 23 24 24 24 24 24 25 25 25 25 24 24 24 24 25 25 25 25 25 25
28 27 29 30 28 28 27 26 22 20 21 24 24 23 23 22 22 25 25 23 21 22 22 23 24 24 24 24 24 24 24 24 24 24 24 24 24 24 24 24 24 25 25 25
27 28 28 30 30 28 25 23 23 24 23 23 21 21 25 23 23 24 24 22 22 22 22 22 22 23 24 24 24 24 24 24 24 24 24 24 24 23 23 24 24 24 25 25
24 27 29 29 29 28 25 24 22 25 22 23 22 21 21 23 23 22 23 22 22 22 21 22 22 22 22 23 23 23 24 24 24 24 24 24 24 24 23 23 23 24 24 24
24 27 28 29 28 28 26 24 22 18 19 21 22 24 25 23 23 22 22 23 21 21 21 22 22 22 22 23 24 24 23 23 23 23 23 23 22 22 22 22 22 22 22 23
24 26 27 28 27 25 27 22 24 19 22 22 22 23 22 23 20 21 21 21 20 21 21 21 21 21 20 20 21 21 22 22 22 22 22 22 22 22 22 22 22 22 22 22
22 23 26 25 23 24 23 23 17 17 17 20 20 21 21 20 21 20 19 19 18 18 18 19 19 19 19 20 21 21 22 22 22 23 23 23 23 23 23 22 22 21 21 21
22 19 22 25 24 22 23 23 19 20 22 17 18 19 19 19 20 20 20 19 19 19 18 19 19 19 19 20 20 21 22 22 21 21 21 21 22 22 22 22 22 22 21 21
22 19 21 23 23 23 23 23 17 16 16 19 19 19 19 18 18 18 18 18 18 18 17 17 16 16 17 17 18 18 19 19 20 20 21 21 22 22 22 22 21 22 22 22
19 15 20 21 22 21 24 23 21 19 19 17 17 18 19 18 17 16 16 17 17 16 15 15 15 15 15 15 15 15 16 17 18 18 19 19 19 20 21 21 22 21 20 21
19 19 20 20 21 23 21 22 22 24 19 22 18 17 17 17 16 16 16 16 15 15 14 14 13 13 13 13 13 13 14 15 15 16 17 17 19 19 19 19 19 20 20 20
16 19 21 21 20 22 21 20 20 19 18 17 18 17 17 15 15 15 14 14 14 13 13 13 12 12 11 11 11 11 11 12 12 12 13 14 15 16 18 18 18 17 18 19
18 16 17 21 18 21 20 18 19 18 18 18 18 16 16 16 15 14 13 13 12 12 12 11 11 10 10 10 10 9 10 10 10 10 11 11 12 13 14 16 16 16 15 16
17 15 14 17 19 20 18 18 18 17 17 16 16 16 17 17 14 12 11 11 11 11 10 10 9 9 9 10 10 10 11 10 10 10 10 11 11 11 12 12 12 14 14 14
16 16 15 17 15 18 19 18 20 19 18 18 16 16 17 15 13 13 11 11 10 10 10 9 9 9 9 9 9 9 8 9 9 9 9 9 9 9 10 10 10 11 12 13
17 15 17 16 19 17 18 21 19 19 18 17 16 16 16 14 14 14 10 10 9 9 9 8 8 8 9 9 9 8 8 8 8 8 8 8 8 8 8 8 8 9 10 11
17 16 17 17 18 18 18 21 19 19 18 16 15 15 14 13 13 11 10 9 9 9 9 9 9 9 10 9 8 7 8 8 8 8 8 8 8 8 8 9 9 8 9 9
19 18 17 15 17 20 19 20 19 17 14 15 14 13 13 12 11 11 10 9 9 9 10 10 9 10 11 10 8 8 9 9 8 8 8 8 8 8 9 9 9 9 9 9
19 17 17 17 16 15 16 18 16 13 14 13 13 12 11 11 10 10 9 9 9 9 10 10 9 9 11 11 10 9 10 9 8 8 8 8 9 9 9 9 9 9 9 9
18 14 15 16 17 17 17 16 14 14 14 12 12 11 9 10 10 9 8 8 8 10 10 10 9 9 10 12 12 11 10 9 8 8 8 9 9 9 9 9 9 9 9 9
16 16 14 15 15 16 15 15 15 13 12 12 10 10 9 9 9 8 8 8 9 10 10 10 9 8 9 12 11 11 11 10 8 8 9 9 9 9 10 10 10 10 9 10
15 15 16 16 15 16 16 16 13 12 12 11 10 10 10 9 8 9 8 10 10 9 10 9 9 8 11 11 11 12 13 11 10 9 10 9 9 9 10 11 11 11 10 11

GFSCGP_925_temp_285.txt.gz
Temp
30 33 33 33 32 32 32 32 32 31 31 31 31 29 28 28 28 28 28 27 28 28 28 27 26 25 24 24 23 23 23 23 23 22 23 23 23 24 24 25 25 25 25 25
32 33 33 32 32 32 31 32 32 32 31 31 30 30 29 29 29 29 29 29 28 29 28 27 26 26 25 24 24 23 23 24 24 23 22 23 23 24 24 24 25 25 25 25
32 32 31 31 31 31 32 32 32 32 30 30 30 30 29 29 29 29 29 29 29 30 29 28 27 26 26 25 24 24 25 24 24 23 22 23 23 24 24 24 24 25 26 25
32 30 31 32 32 33 33 32 32 31 32 32 31 33 29 29 29 28 28 28 29 29 29 29 27 26 26 26 25 24 23 24 24 24 23 23 24 24 25 24 24 24 25 25
32 30 31 32 32 32 32 31 31 30 31 32 30 32 30 28 29 29 29 27 28 29 29 29 28 27 26 25 25 24 23 23 23 24 24 23 23 24 24 23 23 23 24 25
31 29 30 32 29 30 29 31 29 29 31 32 28 30 30 28 26 27 28 29 27 27 27 27 26 25 24 24 23 24 22 24 24 24 24 24 23 23 23 23 23 24 24 24
30 31 30 30 32 30 31 33 32 31 31 32 26 28 28 26 25 26 26 29 27 26 27 26 26 26 25 25 24 24 23 22 23 24 24 24 24 24 23 22 23 23 24 24
31 31 31 31 32 32 29 33 32 30 31 30 26 28 27 24 25 25 26 28 27 26 27 26 26 25 24 23 23 23 23 23 22 22 22 22 21 22 22 22 22 22 23 23
30 30 30 29 30 30 28 31 28 28 25 29 27 26 26 25 23 25 25 26 25 24 25 24 24 22 21 20 21 20 20 21 21 21 22 22 21 21 21 20 21 21 21 22
29 29 29 29 29 28 30 27 30 28 28 28 27 26 27 25 23 24 24 23 23 23 24 23 21 20 20 19 19 20 21 21 21 21 22 22 22 22 22 21 21 21 21 21
28 30 29 29 28 29 29 29 25 27 27 29 28 27 24 22 22 22 22 22 22 22 20 19 19 17 17 17 18 18 19 20 20 21 21 22 22 22 22 22 21 21 21 21
26 30 28 28 27 26 27 27 28 30 27 25 27 26 23 22 23 23 20 20 19 18 18 17 16 16 16 16 17 17 17 18 17 17 18 18 19 19 19 20 20 20 20 20
27 27 28 28 28 27 28 26 24 25 27 26 28 26 23 22 22 22 22 21 20 19 19 19 19 18 18 17 15 16 16 16 16 15 16 17 18 18 19 19 19 18 19 19
26 25 29 30 28 27 27 26 25 27 29 27 28 23 22 22 21 21 21 20 20 20 19 19 18 17 15 15 14 14 14 15 15 14 14 15 16 16 16 16 17 18 18 18
27 25 25 24 25 26 25 25 25 27 26 28 26 24 23 22 21 21 20 20 20 19 18 17 17 15 14 14 13 13 13 13 13 13 13 13 13 14 15 15 15 16 16 17
24 24 25 25 25 26 24 24 24 23 23 23 24 23 23 21 20 20 20 20 19 19 17 16 15 14 14 13 13 13 13 12 12 12 12 12 12 12 13 14 14 15 16 16
23 24 25 25 23 25 25 22 23 22 22 24 24 24 21 20 20 20 19 19 18 17 16 15 14 13 13 12 12 12 12 11 11 11 11 11 11 11 11 12 12 13 14 14
21 22 23 24 24 24 22 21 22 22 21 22 21 21 21 21 21 19 18 18 17 16 15 14 13 13 12 12 12 11 11 11 11 11 11 11 11 11 11 11 11 11 12 13
23 23 22 24 23 21 21 21 22 23 21 21 21 21 20 19 19 19 16 15 15 15 14 13 12 11 11 11 11 10 10 10 10 10 11 10 10 10 10 11 11 11 11 11
22 21 24 20 22 22 23 23 23 23 23 21 21 21 20 19 22 22 16 15 15 14 12 12 12 11 11 11 10 10 10 10 11 11 10 10 10 10 10 10 10 10 10 11
23 22 23 22 23 23 22 23 23 23 23 22 21 21 20 21 20 17 15 14 13 12 12 11 11 11 11 11 11 11 11 11 11 10 10 9 9 9 9 9 9 9 10 10
24 23 22 21 22 22 22 22 23 23 19 22 21 21 19 19 17 15 15 14 13 13 12 12 12 12 12 11 11 12 12 12 11 11 10 10 9 9 9 9 9 9 9 9
23 22 23 22 23 19 20 21 20 20 21 20 21 19 19 18 17 16 15 14 14 13 13 12 12 12 12 12 12 12 13 12 11 10 9 10 10 9 10 9 10 10 10 10
20 18 22 21 21 21 20 20 19 19 20 19 20 19 18 18 17 16 15 14 13 13 12 12 12 12 12 12 12 12 12 12 11 10 9 10 9 10 10 10 10 10 10 10
21 20 20 21 19 19 21 20 20 18 17 17 17 17 17 16 16 15 14 13 13 13 12 12 12 11 12 12 12 12 12 12 11 10 9 9 10 10 9 10 10 10 10 11
21 21 23 24 22 23 22 20 20 18 18 18 17 15 15 15 15 13 13 13 12 12 12 12 12 12 12 12 12 12 12 11 10 11 10 9 10 10 10 10 10 11 11 12

GFSCGP_925_temp_288.txt.gz
Temp
36 36 36 37 36 36 35 35 35 35 35 34 34 33 32 32 33 32 32 31 31 32 31 30 29 28 28 27 26 25 25 24 24 24 25 26 27 27 27 27 26 25 26 25
35 36 37 37 36 36 36 36 36 36 35 35 35 34 33 33 33 33 33 32 32 32 32 31 29 29 28 28 26 26 25 24 24 25 25 26 26 27 27 27 26 25 25 25
35 36 36 36 36 36 37 36 36 36 35 36 35 34 33 33 33 33 33 33 33 33 32 32 30 29 29 28 27 26 25 25 24 25 25 25 24 25 26 27 27 27 26 25
33 36 35 36 36 37 36 36 37 36 35 34 36 33 34 34 32 32 32 33 33 33 33 33 31 30 29 29 28 27 26 25 25 24 25 25 25 25 27 27 27 26 25 25
32 35 34 35 37 36 35 36 36 36 36 36 35 36 33 34 33 33 33 29 32 33 33 33 32 31 30 30 29 28 26 25 25 25 24 25 25 26 27 27 26 25 25 25
34 34 35 35 34 35 36 36 36 36 37 35 36 36 35 34 32 32 33 33 29 32 32 32 32 31 29 28 28 28 26 25 24 23 22 24 25 24 24 26 25 25 27 27
34 33 34 35 34 35 36 36 35 34 35 35 34 35 33 31 28 30 31 33 33 32 31 30 30 30 27 27 24 24 26 23 23 22 23 23 23 23 23 23 23 25 26 27
34 32 32 34 35 36 36 37 36 33 34 36 33 34 32 29 28 29 30 31 33 32 32 31 30 29 28 27 26 23 23 22 21 21 22 22 22 23 23 23 22 22 22 23
34 34 33 34 35 34 34 34 36 35 35 34 36 32 30 29 28 28 30 32 31 32 30 29 28 26 24 23 22 20 20 20 19 20 21 21 21 22 22 22 22 23 23 24
35 33 34 32 34 33 34 35 34 35 32 32 35 32 33 30 28 27 26 25 26 27 25 26 24 22 23 21 21 21 21 20 19 20 22 22 22 21 21 22 22 22 22 22
35 34 32 32 33 35 33 34 34 35 34 33 34 34 30 28 27 26 25 24 23 19 19 21 21 20 20 18 18 21 21 20 20 19 19 20 21 21 22 22 22 22 22 21
34 35 33 33 31 32 33 34 35 34 33 33 33 32 29 28 27 23 23 21 20 18 18 18 18 18 18 18 18 17 16 19 17 17 18 19 20 20 21 21 21 21 21 21
33 34 31 31 32 32 33 32 33 34 34 33 32 32 29 28 26 23 20 19 18 17 17 18 19 19 19 19 17 16 17 16 17 16 17 17 18 19 19 19 19 19 19 19
29 34 33 33 32 34 31 31 32 33 33 33 33 29 27 27 25 23 21 21 21 21 22 21 21 20 19 18 18 17 17 17 16 15 16 16 16 16 16 16 17 17 18 18
33 32 32 31 31 32 32 31 31 31 32 31 32 31 28 27 26 24 24 24 23 23 22 22 21 20 18 17 17 17 16 16 16 15 16 16 15 14 14 14 15 15 16 17
31 29 31 29 30 30 30 30 29 30 30 30 31 30 29 27 26 25 24 24 24 22 21 21 20 18 18 17 16 16 16 15 15 15 15 14 14 14 14 14 14 14 14 14
29 29 29 30 29 29 29 30 28 29 28 29 29 30 27 25 25 25 24 24 23 22 21 19 18 17 17 17 16 16 15 15 15 15 14 14 14 14 14 13 13 14 14 14
27 28 29 29 28 27 27 26 27 27 26 28 27 27 26 25 25 25 24 24 22 21 20 19 18 17 16 16 15 15 15 14 14 14 14 14 14 14 13 13 13 13 14 14
29 29 27 28 29 27 26 25 26 27 26 25 26 25 25 25 24 23 23 22 21 20 19 18 16 16 15 15 15 14 14 14 14 15 14 14 14 13 12 12 12 12 12 13
28 27 28 26 27 26 27 26 27 27 26 25 25 25 24 24 25 25 22 20 19 18 18 17 17 16 16 15 14 14 15 15 15 15 14 14 13 13 12 11 11 10 10 10
26 27 27 27 27 27 26 27 27 25 25 26 26 25 25 24 24 22 21 20 19 18 17 16 16 16 16 15 15 15 15 15 15 14 14 14 12 11 11 12 11 11 10 10
27 27 27 26 26 25 27 26 25 25 26 26 26 26 24 24 21 21 20 19 18 17 16 16 16 16 16 16 15 15 15 15 15 15 14 14 13 12 12 11 11 10 10 10
26 27 27 26 26 24 27 25 24 25 26 26 25 25 24 23 22 21 20 19 18 17 17 17 17 17 16 17 16 16 16 15 15 15 15 15 14 13 11 11 11 10 10 10
24 24 26 25 25 25 25 25 24 24 25 25 25 25 23 23 22 21 20 19 18 18 17 17 17 17 17 16 16 16 16 16 16 16 16 16 15 15 13 11 11 10 9 9
26 24 25 25 24 24 25 25 25 24 23 23 24 23 23 22 21 20 19 18 18 17 16 16 16 16 16 16 16 16 16 16 16 16 16 16 17 16 14 11 11 10 9 9
26 26 26 26 26 26 25 25 25 24 23 23 22 22 21 21 21 19 19 18 17 17 16 16 16 16 16 16 16 16 15 15 15 16 17 17 17 17 15 12 11 12 11 10